User: anonymous   Login
Location: La Brionne
(46.1728°N, 1.7849°E)
Time: 04:48:44
(UTC+00:00)
Language:

SAR-Lupe-2 - Orbit

View from above orbital plane
View from above orbital plane
View from above satellite
View from above satellite

Ground track
Ground track

The orbit data is extracted from the following two-line orbital elements,

1 31797U 07030A   21223.95159149 0.00001500  00000-0  55650-4 0    04
2 31797  98.1196 135.6392 0001001  22.9171 337.0827 15.27627247    09
Epoch (UTC): 11 August 2021 22:50:17
Eccentricity: 0.0001001
inclination: 98.1196°
perigee height: 482 km
apogee height: 483 km
right ascension of ascending node: 135.6392°
argument of perigee: 22.9171°
revolutions per day: 15.27627247
mean anomaly at epoch: 337.0827°
orbit number at epoch: 0

The dashed part of the orbit path shows where the satellite is in the earth's shadow,  

DLR